GFSMW_700_spd_186.txt.gz
Wind_Speed
25 25 27 30 36 36 36 35 33 33 34 33 34 34 30 26 25 24 23 23 24 24 25 25 25 25 24 23 22 22 22 23 23 23 22 22 21 21 21 22 23 24 26
27 30 28 29 32 35 35 34 35 33 35 36 36 35 31 28 29 25 23 22 22 23 25 25 26 26 25 24 24 23 23 23 23 22 23 24 23 23 22 23 24 25 26
24 27 31 30 30 37 38 39 37 34 35 38 39 38 36 36 33 28 24 23 23 23 23 24 26 26 26 25 24 24 23 21 20 22 23 24 23 23 22 22 23 24 25
26 28 32 32 32 31 41 43 40 37 38 38 40 39 38 36 33 29 27 26 25 23 24 25 26 26 26 26 25 24 22 21 21 21 21 21 22 22 25 23 24 26 27
17 25 27 28 34 34 35 42 41 40 41 40 40 40 41 40 37 35 32 28 26 26 27 27 27 25 25 25 25 23 22 22 23 23 23 23 24 24 25 26 25 27 28
20 27 30 30 30 32 33 37 41 41 41 40 42 43 43 42 39 37 33 31 30 31 29 28 28 25 25 25 23 21 22 22 24 25 24 23 23 24 25 26 25 24 27
27 28 29 32 32 32 32 30 33 35 38 40 42 46 45 41 42 41 37 33 31 31 30 28 27 24 23 23 20 20 23 26 24 24 23 22 23 24 25 25 23 18 17
25 25 31 29 31 30 29 31 32 35 38 42 44 46 47 47 48 47 39 41 33 30 29 27 25 22 20 19 20 23 28 26 24 23 22 22 22 23 23 22 20 15 12
21 22 24 26 28 31 34 34 37 37 38 40 42 44 47 45 43 44 44 38 36 29 29 27 24 21 21 22 22 27 25 25 24 23 22 22 20 20 19 18 17 16 14
20 24 29 32 33 30 29 30 30 32 34 33 42 46 46 44 42 45 40 35 27 30 35 26 25 26 22 18 25 24 23 23 22 22 21 19 18 17 17 18 19 19 19
11 9 13 21 26 33 30 31 32 32 33 35 43 44 43 43 45 45 39 32 33 33 27 29 25 15 17 23 23 23 21 22 22 20 19 18 17 17 17 18 19 21 21
5 6 8 9 16 21 33 30 32 29 28 33 38 41 43 45 44 41 39 36 29 29 30 19 11 17 21 21 21 21 20 21 20 19 18 17 18 18 18 18 20 22 24
5 5 7 10 10 11 12 18 24 28 31 36 40 42 42 42 43 36 37 31 25 20 11 11 20 18 19 20 19 20 20 20 20 19 19 19 19 20 19 20 21 24 26
13 10 11 14 5 4 6 15 23 30 33 34 34 34 34 35 34 34 26 18 19 11 15 19 16 17 19 19 19 19 20 20 20 20 20 20 20 20 19 20 22 25 27
16 14 14 14 14 6 2 6 21 19 17 18 24 26 28 27 24 21 22 19 13 18 21 16 18 19 19 18 18 20 21 21 20 20 20 19 19 19 20 20 23 26 29
16 18 19 17 15 14 8 5 2 11 7 17 16 17 19 20 21 25 19 16 21 24 19 18 18 18 18 18 19 19 20 19 19 18 17 17 19 17 18 22 26 29 31
16 16 14 14 13 17 18 15 12 11 10 10 14 15 17 20 22 22 22 25 28 24 20 16 17 17 18 18 18 17 17 17 16 15 16 17 16 17 20 23 26 29 32
17 19 21 20 19 19 21 22 21 20 21 20 20 21 22 23 26 28 32 31 24 23 15 17 17 17 18 16 15 14 16 14 14 15 14 14 16 17 20 23 26 29 32
24 25 25 25 26 27 23 22 24 26 25 26 25 22 28 29 31 29 26 24 26 22 16 18 16 15 15 12 12 14 13 13 13 12 13 15 18 21 23 26 28 30 31
30 27 29 29 27 30 31 29 26 26 29 28 26 29 33 32 23 22 23 25 25 16 19 18 15 13 13 11 12 13 12 10 10 12 14 17 21 23 25 28 31 33 34
21 22 23 25 30 27 32 36 33 29 28 27 27 38 34 23 22 21 24 28 18 20 19 16 14 12 12 13 12 11 9 10 12 15 18 21 23 25 28 30 33 34 36
20 22 23 25 26 25 25 26 26 27 25 24 32 35 25 23 22 22 25 22 20 19 17 15 14 13 12 12 11 10 10 12 15 17 20 23 25 27 30 33 35 36 38
25 23 25 27 22 23 20 17 19 19 20 24 28 26 21 21 21 22 26 17 20 18 16 16 15 15 13 11 11 10 12 13 17 19 22 25 27 29 32 34 36 38 39
20 22 22 26 23 17 15 12 15 17 20 17 19 19 20 19 20 24 20 19 21 19 18 17 16 15 13 12 11 11 13 16 19 22 24 27 29 31 33 35 37 39 41
19 21 24 22 13 16 18 14 15 17 17 17 18 19 19 20 24 19 19 22 20 20 19 18 17 15 13 12 12 13 15 18 21 24 26 28 30 32 34 36 38 40 41
24 22 22 21 14 8 11 15 18 18 17 17 18 20 22 25 23 21 23 22 22 21 19 18 17 16 14 12 13 16 18 21 24 26 28 30 32 34 35 37 38 40 41

GFSMW_700_spd_189.txt.gz
Wind_Speed
25 25 25 29 30 35 38 41 42 39 40 39 39 39 39 37 35 32 28 28 28 26 25 23 23 23 23 23 23 23 23 22 22 22 21 19 18 19 20 21 21 23 24
27 26 27 33 34 33 38 37 41 40 38 39 39 40 39 37 36 32 30 30 28 26 24 23 23 23 23 23 23 23 23 23 23 22 20 22 20 21 20 23 22 24 25
24 23 24 35 39 37 36 37 40 41 39 39 40 41 41 40 37 34 34 32 29 27 25 24 23 22 23 23 23 23 24 24 22 20 19 18 13 24 26 22 21 23 24
34 34 31 22 37 39 37 34 41 42 40 40 40 40 39 38 37 35 36 34 31 30 28 27 26 26 25 25 25 23 23 24 23 20 19 19 20 20 26 26 23 25 26
26 28 32 25 29 38 39 37 36 42 44 42 43 43 42 41 40 38 38 37 35 35 33 31 31 29 28 27 26 25 24 23 22 21 20 21 21 23 23 26 25 25 26
26 26 26 34 29 34 37 39 39 38 40 43 45 47 45 44 43 42 41 41 41 39 36 35 34 32 30 27 26 25 23 22 21 21 23 21 25 25 24 25 26 27 28
25 25 29 28 32 34 38 36 36 36 37 42 45 47 45 47 46 44 43 41 42 41 40 37 34 31 28 27 27 26 23 21 21 21 22 23 24 25 25 26 25 24 25
30 28 26 30 35 35 37 36 33 34 34 39 41 45 47 50 48 46 46 46 47 46 48 49 35 30 27 27 27 25 22 20 21 24 23 25 25 25 26 26 23 22 21
26 30 32 29 27 28 30 31 32 35 33 32 37 42 45 47 44 47 48 48 49 50 53 52 47 37 30 29 29 25 22 20 22 23 23 24 25 26 25 24 23 22 19
21 25 28 30 26 25 26 27 29 31 36 38 37 37 38 42 44 46 47 50 48 47 47 43 42 30 30 30 29 27 24 21 22 23 23 24 25 24 23 23 23 21 20
8 8 10 13 15 23 26 28 32 35 31 33 33 33 39 46 47 48 49 48 49 46 43 39 34 37 36 33 31 31 18 22 23 22 22 24 24 23 22 21 20 21 20
9 8 10 11 10 15 22 21 30 33 32 34 35 36 40 43 45 45 44 45 46 44 43 35 34 34 29 33 25 16 21 20 21 22 23 24 24 22 20 20 20 21 22
16 15 14 16 15 16 16 21 23 24 26 28 31 33 37 39 41 42 44 45 44 39 36 31 34 30 29 21 15 19 19 20 21 23 23 23 22 20 20 20 21 22 23
17 18 19 19 17 14 15 16 15 14 16 22 26 30 33 35 35 36 37 36 34 33 31 29 26 27 19 15 19 19 19 20 21 22 22 21 20 21 21 21 21 23 24
17 17 18 18 18 16 13 12 12 13 16 19 22 23 25 27 29 31 33 34 32 27 26 26 24 18 16 16 17 18 19 19 21 21 21 20 20 20 20 20 22 22 23
15 16 18 16 15 16 14 13 11 12 15 13 17 18 21 25 28 29 28 25 26 25 25 22 17 18 15 16 17 17 19 21 22 21 19 18 18 18 19 19 20 21 23
16 14 10 13 16 13 18 17 14 13 11 8 10 16 17 18 20 23 25 26 25 26 22 21 20 16 16 17 17 16 18 20 20 19 17 16 16 16 17 18 19 20 21
8 8 13 14 11 20 20 18 18 19 19 20 17 17 13 16 18 20 20 24 26 23 24 21 21 18 17 16 16 17 18 18 16 15 15 15 15 15 16 18 20 22 26
17 20 23 26 24 19 26 26 23 21 25 25 27 26 26 19 21 22 24 26 22 20 21 24 24 17 17 16 16 17 15 14 15 14 14 13 14 17 18 18 20 23 25
22 23 23 21 23 22 26 32 28 27 23 25 28 32 28 21 24 21 22 21 21 22 23 23 21 16 17 16 15 14 14 14 14 13 13 15 17 17 19 21 23 25 27
18 19 19 20 22 20 23 29 29 26 26 24 27 31 25 29 26 18 17 20 21 21 22 23 16 19 17 16 15 14 15 14 13 13 15 16 17 19 22 23 26 29 31
23 24 24 24 22 23 20 22 22 23 25 24 24 26 29 30 22 16 18 18 20 21 24 19 19 18 18 16 16 16 15 14 14 14 15 17 19 21 23 26 28 32 34
18 22 22 21 22 23 23 20 19 18 21 21 25 26 28 27 19 17 18 18 20 23 21 18 21 18 18 17 15 15 14 14 14 15 17 19 21 23 26 28 31 34 36
13 16 19 22 22 24 26 19 17 13 17 22 25 23 21 18 17 18 18 18 20 22 16 21 20 19 17 16 15 15 15 15 15 17 18 21 23 26 29 32 34 36 37
17 19 23 24 23 21 25 16 15 13 15 20 19 15 17 18 17 18 18 18 21 20 19 21 20 19 18 16 16 16 16 16 17 19 21 23 26 29 32 34 36 38 38
24 26 29 26 23 21 19 16 13 14 16 19 18 16 16 17 19 20 19 20 19 19 20 20 21 19 17 18 17 16 17 18 19 21 24 27 29 31 33 35 37 39 39

GFSMW_700_spd_192.txt.gz
Wind_Speed
33 29 28 29 30 34 45 49 38 32 36 43 41 42 40 42 39 37 31 33 31 30 30 27 27 28 26 23 22 21 21 20 20 21 19 19 20 20 20 17 18 20 19
32 29 30 32 35 38 44 49 44 35 31 38 41 41 38 41 39 38 33 34 33 32 32 29 30 30 26 25 24 23 23 21 21 20 21 21 20 18 20 18 17 22 21
40 38 36 38 38 43 49 48 44 40 35 36 39 41 40 42 43 40 37 36 35 36 35 32 31 30 28 26 25 24 24 21 22 21 22 20 23 21 20 20 18 23 22
39 40 36 32 32 40 44 50 48 42 36 37 41 42 42 42 43 41 40 38 38 39 37 34 32 33 30 28 27 25 25 24 22 22 21 19 21 20 24 22 20 23 25
49 40 39 38 34 29 38 45 45 44 41 36 40 42 43 43 44 43 42 39 39 40 39 36 35 36 33 31 29 28 25 26 22 21 20 20 20 21 24 29 25 21 23
45 42 40 42 28 22 32 37 39 44 43 36 37 43 44 45 46 45 43 40 40 41 41 39 39 37 34 35 34 31 28 27 25 23 21 22 21 21 22 25 25 24 25
24 31 34 34 30 41 48 33 33 37 40 38 35 37 43 45 48 49 44 42 41 42 42 41 41 38 37 38 37 36 32 28 26 26 25 23 22 22 23 21 21 25 27
28 31 32 33 29 32 33 33 31 32 36 35 37 39 44 47 49 51 46 44 44 43 43 43 41 40 39 39 37 39 32 32 28 28 28 23 22 21 22 22 22 23 26
27 30 33 36 33 25 26 29 30 35 31 35 36 43 41 49 49 48 45 48 44 42 41 43 43 45 43 46 48 54 36 34 31 27 24 19 20 23 22 21 22 21 22
19 20 24 27 28 29 31 35 28 27 30 33 35 39 42 48 50 49 43 41 44 42 45 46 48 53 51 41 51 48 42 41 31 26 26 26 23 25 23 22 20 21 21
9 13 12 14 18 24 27 30 27 25 27 28 30 33 38 42 45 45 46 46 45 46 44 43 47 43 37 38 38 35 36 32 30 29 23 23 25 24 22 22 20 21 20
16 9 11 15 14 15 14 16 17 20 21 27 29 34 37 39 38 40 42 42 44 43 42 42 40 39 41 38 36 34 32 32 35 32 21 24 24 20 20 20 20 20 20
10 14 15 19 19 19 18 17 18 19 23 22 28 29 31 34 37 39 41 41 40 41 41 43 41 38 36 37 39 38 38 36 23 20 23 22 18 18 20 21 20 21 21
17 14 15 20 24 25 21 20 16 17 20 23 20 21 25 30 32 33 34 34 35 35 36 35 33 29 30 31 32 33 32 18 18 22 18 16 18 18 20 19 22 22 20
25 21 22 19 27 27 18 16 16 16 16 17 16 17 22 24 24 26 28 28 29 32 32 31 29 30 33 33 29 27 16 16 19 18 15 17 18 18 19 21 22 19 18
16 16 15 23 22 22 15 16 13 14 14 12 11 13 14 15 17 22 26 29 29 29 29 31 31 29 26 25 24 17 16 18 18 16 15 17 17 17 19 19 16 17 17
22 21 12 18 18 14 15 11 10 15 16 13 11 9 9 16 21 23 25 28 30 30 28 28 27 25 25 23 18 16 19 18 15 16 15 16 15 16 15 15 15 15 18
23 12 4 14 9 16 21 18 13 13 17 17 17 16 15 16 15 19 20 22 23 23 25 27 28 25 19 16 14 18 18 15 15 16 15 14 14 14 14 14 14 17 19
14 9 13 14 14 11 19 28 23 17 18 22 20 22 25 25 23 20 20 21 22 22 26 27 23 17 17 19 18 19 16 15 15 13 13 13 14 13 13 14 16 18 20
7 10 13 12 15 11 11 26 23 17 18 21 21 20 24 22 25 26 24 21 19 21 22 22 18 20 22 20 17 18 17 15 13 12 13 14 14 13 14 14 16 18 21
11 10 12 16 15 16 17 19 21 19 18 20 21 23 23 22 27 26 20 18 17 17 19 21 19 22 19 17 19 17 15 13 13 13 14 14 14 14 15 16 18 20 23
15 15 12 14 17 19 20 21 22 21 21 20 23 23 24 29 23 23 19 18 18 17 20 20 21 21 18 17 18 17 15 14 14 14 14 14 14 15 16 18 20 23 25
9 11 7 7 12 20 20 19 19 25 23 23 22 23 23 24 22 21 20 19 18 17 19 19 21 20 16 18 18 16 15 16 15 15 15 15 15 16 17 20 23 25 28
11 12 11 15 16 19 25 23 20 29 21 22 20 21 24 25 23 21 19 17 17 16 17 20 21 16 17 19 18 17 16 16 15 15 15 16 17 18 21 23 25 27 30
9 24 16 19 23 26 27 24 20 22 17 19 19 21 23 20 18 18 18 16 14 13 17 21 17 14 17 16 17 17 17 16 16 17 17 18 20 22 25 26 28 31 33
10 21 21 19 21 25 24 23 18 18 14 17 19 18 15 16 18 18 15 14 15 16 19 18 16 18 18 18 19 18 17 17 18 19 19 22 23 25 27 29 31 33 36

GFSMW_700_spd_195.txt.gz
Wind_Speed
30 29 29 31 29 36 40 45 47 43 39 31 33 39 38 40 37 35 35 35 34 36 30 27 29 27 27 26 24 27 26 26 25 22 22 21 21 21 20 20 17 16 17
34 34 37 39 35 39 46 44 45 48 47 42 34 33 36 42 42 37 37 38 37 37 33 31 33 30 28 29 28 29 28 27 28 24 22 23 23 24 20 20 18 17 17
45 45 40 43 41 41 49 50 50 49 49 46 44 41 41 42 47 43 39 39 39 40 36 34 35 34 30 30 30 30 30 29 28 26 25 25 24 26 22 21 20 19 17
45 47 48 49 45 45 48 50 52 50 49 49 46 46 45 43 45 44 41 41 41 42 39 36 37 35 33 32 32 33 32 30 29 27 27 25 26 26 26 22 20 18 21
40 46 47 49 49 50 50 50 48 49 48 47 46 49 44 41 46 46 44 41 42 42 41 38 39 38 36 35 35 34 35 32 30 30 28 27 28 28 26 27 23 21 22
42 47 50 45 41 44 49 53 47 45 47 45 40 45 42 45 44 45 44 43 42 43 42 41 40 40 38 37 38 38 39 37 35 33 31 28 28 29 29 28 24 22 23
40 48 40 40 39 38 43 48 46 41 41 38 35 42 39 45 37 39 41 43 44 44 45 44 42 41 41 41 41 40 40 39 37 35 32 29 28 29 29 28 25 24 24
32 37 31 32 39 38 42 42 41 38 41 38 32 35 36 39 42 37 39 40 41 42 43 44 44 44 44 43 41 41 40 39 37 34 31 33 29 28 26 27 26 26 26
14 26 26 26 30 31 31 37 35 32 30 29 33 33 36 36 40 41 39 39 43 41 43 44 45 44 44 44 43 44 42 42 43 39 40 42 31 32 27 26 23 25 28
19 18 29 32 29 30 31 29 32 32 28 28 33 28 38 37 41 43 45 41 37 43 42 48 45 47 46 43 46 51 44 43 46 47 40 35 39 30 27 28 26 26 28
15 11 14 22 15 13 17 28 31 27 28 27 26 28 36 38 46 50 41 50 41 43 43 41 45 46 45 46 42 38 43 44 46 40 45 41 35 32 30 30 24 22 22
50 42 26 26 17 12 11 11 16 22 25 31 31 31 37 35 37 37 44 49 42 47 40 44 42 36 32 39 39 35 33 33 37 42 37 32 28 29 22 24 23 20 20
35 31 36 21 20 21 19 18 19 17 14 15 21 27 32 33 35 38 41 48 43 42 41 39 39 39 35 30 30 28 27 30 28 30 31 34 26 20 21 23 20 21 20
26 18 20 17 17 20 24 20 21 20 17 16 13 16 24 33 38 36 34 38 43 44 42 42 35 29 26 27 25 25 26 32 35 37 38 24 20 19 22 21 21 21 19
28 22 17 22 23 23 26 21 21 20 17 15 15 12 11 15 24 29 33 36 37 34 31 29 26 26 27 26 28 29 30 34 35 30 20 16 20 21 22 21 21 19 17
27 23 28 32 26 24 19 15 15 16 16 14 13 11 11 12 17 19 22 22 22 23 25 26 27 28 27 29 30 33 35 35 27 17 18 20 20 20 20 20 18 16 16
25 31 30 24 16 18 13 10 9 9 9 9 12 11 10 8 8 14 17 18 20 23 25 26 27 29 29 30 29 30 30 25 16 16 20 19 20 21 19 18 16 16 16
25 27 26 23 23 19 13 15 11 9 12 12 14 13 13 14 15 14 12 14 18 22 25 26 27 26 26 25 27 30 26 17 17 18 16 18 19 18 17 15 15 14 15
23 17 18 7 9 12 13 16 14 12 15 17 15 16 15 16 18 19 17 20 20 23 23 22 24 24 23 26 26 26 18 18 17 17 20 21 19 16 15 14 16 16 18
23 6 2 5 4 7 12 13 13 11 12 16 20 20 19 20 18 14 18 23 22 20 19 19 19 21 26 26 24 21 16 13 17 18 17 18 15 14 15 16 16 16 17
6 7 10 5 4 3 7 12 16 16 15 13 21 24 20 20 20 16 9 16 16 17 18 19 21 22 23 23 24 19 15 16 19 19 17 16 15 15 15 15 16 17 18
14 9 7 6 7 5 6 13 17 17 20 19 20 24 21 22 20 22 22 16 18 20 22 19 17 20 22 23 20 13 16 18 16 16 17 15 15 15 16 16 17 17 19
10 7 6 7 2 3 7 13 17 20 18 26 28 26 26 25 23 24 23 23 23 21 22 19 18 20 21 20 16 16 15 17 16 17 17 15 15 16 17 17 18 20 22
9 10 7 6 9 11 13 17 21 22 21 25 21 18 20 23 26 24 24 23 23 20 19 18 17 20 19 19 17 13 16 17 17 16 17 17 17 18 18 19 21 23 25
9 13 9 10 13 15 16 19 20 23 20 22 16 16 20 24 25 23 22 21 19 17 17 17 15 16 20 16 12 17 17 16 17 17 18 18 18 19 20 22 24 26 28
17 18 11 13 15 17 16 16 16 21 15 18 13 13 17 19 17 18 19 18 16 15 17 17 14 19 21 15 17 18 17 18 18 18 18 19 20 21 23 25 27 29 30